Globalstar
NORAD ID: 25851
Int'l Code: 1999-037A
Perigee: 2,134.8 km
Apogee: 2,157.5 km
Inclination: 52.0 °
Period: 130.4 minutes
Semi major axis: 8517 km
Launch date: July 10, 1999
Source: Globalstar (GLOB)
Two Line Element Set (TLE):
1 25851U 99037A 13144.08546542 -.00000056 00000-0 27808-3 0 997
2 25851 051.9911 162.7703 0013332 040.1715 001.8079 11.04490176609301
Source: AFSPC
NASA's NSSDC Master Catalog entry for GLOBALSTAR M035